Lapse_Rate
2.3 2.7 2.7 3.1 3.2 3.7 3.4 2.7 2.9 3.1 3.0 3.1 3.2 3.4 3.0 3.3 3.7 3.8 4.1 5.5 6.2 7.2 8.1 8.6 8.3 8.3 8.1 7.9 7.9 8.0 7.9 7.6 7.4 8.0 6.8 6.6 6.8 6.5 6.1 5.8 6.0 5.0 5.1
2.7 2.4 2.1 2.1 2.5 3.1 3.0 2.7 2.1 1.8 1.7 2.6 1.9 2.4 2.5 3.4 3.7 3.6 3.3 3.6 5.1 7.1 8.0 8.8 9.2 9.1 9.1 8.7 8.5 8.6 8.2 7.6 7.3 7.1 6.7 6.6 6.5 5.8 5.5 5.6 5.6 5.2 5.7
2.8 2.2 1.7 1.8 2.5 2.9 2.5 2.4 2.1 1.9 0.9 1.8 1.1 2.6 3.2 3.8 4.3 4.2 4.1 3.5 4.5 6.0 7.9 8.7 9.1 9.3 9.3 9.6 9.3 9.4 9.1 8.9 8.1 7.6 6.9 6.6 6.3 6.2 6.0 5.8 5.7 5.5 5.5
3.0 2.3 1.7 1.6 2.1 2.4 2.2 1.4 0.9 -0.2 0.0 0.7 1.3 1.9 3.1 3.9 4.7 5.0 5.5 5.7 5.4 5.9 7.2 7.6 9.0 9.2 9.3 9.5 9.4 9.5 9.5 9.1 9.2 8.5 8.0 7.4 6.8 6.4 6.4 6.6 6.2 6.1 6.2
3.1 2.6 1.4 1.6 2.4 1.9 1.6 1.8 0.2 0.9 1.5 2.6 3.7 3.6 2.4 2.6 3.9 5.2 5.4 6.0 6.6 6.8 7.2 7.3 7.5 8.3 9.0 9.4 9.7 9.7 9.7 9.4 9.3 9.1 8.3 7.9 7.8 7.3 7.1 6.8 6.5 6.7 6.7
2.9 2.5 2.0 2.0 2.8 1.5 0.9 1.2 1.7 1.6 2.3 3.0 5.4 4.7 2.6 3.0 3.8 3.9 4.5 5.1 5.9 6.0 6.4 6.8 7.1 7.4 8.3 8.9 8.9 9.2 9.0 8.9 9.1 9.4 9.1 8.6 8.4 8.2 7.9 7.4 6.7 6.9 7.7
3.3 3.0 2.2 2.1 2.5 1.6 1.7 2.1 2.0 2.8 2.4 2.0 3.0 2.7 2.7 2.8 3.9 3.4 4.6 5.0 5.6 6.0 6.4 6.5 6.7 7.0 7.1 7.2 8.3 9.5 9.7 9.6 9.6 9.6 9.5 9.5 9.6 9.4 9.0 9.4 8.7 8.4 8.8
3.7 3.1 2.7 2.0 2.4 1.5 1.9 2.2 2.4 2.0 2.0 1.7 3.6 2.6 4.2 3.5 3.5 4.1 4.2 4.9 4.8 5.3 6.0 6.3 6.4 6.9 7.0 6.9 7.2 7.8 8.6 9.6 9.7 9.7 9.7 9.7 9.6 9.6 9.6 9.7 9.7 9.7 9.6
3.8 3.9 3.6 2.9 2.5 2.6 2.5 2.3 2.1 2.9 3.4 2.6 3.1 4.5 4.4 3.8 3.3 3.2 4.3 4.1 4.6 4.3 5.1 5.5 6.4 6.6 6.8 6.9 7.1 7.2 7.6 7.9 9.5 9.7 9.7 9.6 9.6 9.6 9.6 9.6 9.6 9.7 9.7
4.4 4.2 3.7 3.5 3.0 3.0 2.5 2.6 2.7 2.9 2.9 3.8 2.9 4.0 3.9 4.1 4.6 3.9 3.6 4.5 4.0 4.9 4.1 5.0 5.7 6.3 6.5 6.7 6.9 7.3 7.8 7.9 8.0 8.9 9.6 9.6 9.6 9.6 9.6 9.6 9.6 9.7 9.6
4.5 4.9 4.1 3.9 2.7 2.7 2.7 2.5 3.0 3.3 2.7 3.4 3.3 3.7 3.5 3.0 3.0 3.6 3.9 4.2 4.5 4.5 4.1 4.5 5.1 5.5 6.2 6.4 6.6 7.5 8.1 8.3 8.3 9.0 9.7 9.6 9.7 9.6 9.7 9.7 9.6 9.7 9.5
2.7 3.5 3.6 3.5 3.1 3.0 2.7 2.9 2.9 2.9 2.7 2.7 3.0 3.1 3.8 4.3 4.2 3.6 3.2 4.0 3.9 5.2 4.2 4.6 4.8 5.5 6.2 5.9 6.3 7.2 7.9 8.4 8.5 8.6 9.0 9.4 9.6 9.6 9.6 9.6 9.6 9.6 9.6
3.0 3.7 3.4 3.3 3.7 3.4 3.5 3.4 2.5 2.3 2.6 2.9 3.2 3.4 3.4 4.0 4.3 4.4 4.6 4.7 7.0 6.2 6.0 4.2 5.2 5.3 5.2 4.9 5.4 6.8 6.8 6.8 7.6 8.2 8.8 9.2 9.5 9.6 9.6 9.6 9.6 9.6 9.6
2.5 2.8 2.6 3.4 4.0 4.0 3.5 3.2 2.2 1.9 2.5 2.8 3.9 3.9 4.0 4.1 4.2 4.7 5.4 5.4 5.8 6.7 4.3 5.2 4.6 4.7 5.1 5.5 5.7 6.6 6.0 6.1 7.0 7.6 8.1 8.3 8.6 9.0 9.3 9.6 9.6 9.6 9.6
3.3 3.2 3.4 3.3 3.3 3.1 3.2 2.7 1.6 2.3 2.8 3.6 4.0 4.0 3.8 3.9 4.3 4.4 4.9 5.1 6.0 6.2 4.4 4.6 5.5 5.8 6.4 6.7 6.2 6.3 5.5 5.8 7.1 7.2 7.4 7.9 8.3 8.9 9.4 9.6 9.6 9.6 9.6
4.0 3.6 3.2 3.3 3.2 3.1 3.0 2.9 2.7 2.9 3.8 3.5 3.9 4.0 3.8 3.8 4.5 4.9 5.4 5.1 4.8 5.1 6.1 5.4 5.4 5.5 5.6 5.7 6.1 5.9 5.4 6.3 6.3 7.0 7.9 8.3 8.5 8.7 9.2 9.6 9.6 9.6 9.6
4.3 3.7 3.4 3.0 3.1 3.0 3.1 3.2 3.1 3.5 4.1 3.9 3.8 3.8 4.2 4.8 5.0 5.8 6.0 5.5 5.3 4.1 4.4 4.3 4.0 4.2 3.9 4.0 4.7 5.1 4.9 5.2 6.0 7.2 8.1 8.4 9.0 9.1 9.0 8.9 8.9 9.0 9.1
4.0 3.5 3.5 3.7 4.1 4.0 3.4 3.3 3.6 4.4 4.1 4.1 4.2 4.2 5.1 6.4 5.3 4.8 4.2 4.4 4.1 3.9 4.3 4.3 3.7 3.8 3.8 4.0 4.1 3.7 5.2 6.2 7.0 7.3 8.3 8.9 8.4 8.6 8.6 8.5 8.4 8.4 8.4
3.9 3.7 3.4 3.9 4.1 4.3 4.1 3.6 3.9 4.2 4.3 4.2 4.2 4.7 5.1 5.2 4.8 4.0 3.9 3.9 3.7 5.3 3.9 3.8 4.2 4.0 3.6 3.4 3.9 4.4 5.0 5.8 6.6 7.9 8.0 7.9 8.0 7.9 7.7 7.9 8.0 8.2 8.3
4.0 3.7 4.0 4.1 4.3 4.4 4.1 4.4 4.9 4.7 4.3 4.3 4.2 4.6 5.2 5.1 4.8 4.9 5.0 4.5 4.6 4.1 3.9 4.1 4.4 4.7 3.8 4.2 4.2 5.1 5.3 6.1 6.4 6.8 6.6 6.9 7.5 7.7 7.8 7.5 7.6 7.4 7.6
4.2 4.2 4.3 4.1 4.1 4.5 4.7 4.6 4.7 4.5 4.3 4.1 4.3 4.9 5.4 6.4 7.3 6.0 5.7 4.9 4.0 3.9 4.2 4.5 4.7 4.3 4.1 4.3 5.2 6.4 6.3 6.0 6.0 5.8 5.9 5.5 5.9 5.9 5.5 5.9 6.5 6.9 7.2
4.2 3.9 3.7 4.1 4.2 4.8 5.3 5.1 4.9 4.3 4.4 4.3 3.9 4.4 5.0 5.7 5.8 7.5 7.1 6.1 4.6 4.5 4.6 4.0 4.3 4.2 4.0 4.6 4.3 5.3 5.9 6.2 7.0 6.3 5.8 5.7 6.0 5.2 5.4 5.1 5.6 6.2 6.9
3.7 4.0 3.9 4.1 4.0 3.7 4.4 5.2 5.6 4.2 4.0 3.6 3.5 4.3 4.7 5.8 5.9 5.7 6.6 6.6 6.4 6.5 5.5 4.1 3.2 3.7 3.1 4.9 5.9 6.0 6.5 7.0 7.4 7.2 6.6 6.9 5.9 5.0 5.2 5.4 6.0 6.5 6.7
3.8 3.7 3.4 3.5 3.1 3.6 4.7 5.4 5.4 3.9 3.4 3.6 5.4 4.9 4.6 4.9 4.9 5.2 4.9 4.8 5.1 5.3 5.5 5.3 4.0 3.9 4.4 5.3 5.9 7.3 7.4 7.3 6.9 6.7 6.5 6.6 5.8 5.2 4.8 4.5 5.1 6.0 6.6
3.5 3.5 3.3 2.9 2.9 2.8 4.4 5.4 5.4 3.6 3.4 4.0 5.5 4.9 5.1 4.8 5.6 6.6 5.1 5.0 5.4 5.4 6.1 6.0 6.4 6.8 7.3 7.8 7.9 4.9 5.5 6.4 6.4 6.8 6.2 6.2 4.9 5.7 5.1 4.1 4.7 5.8 7.0
3.4 2.6 2.3 2.4 2.9 2.5 4.0 5.3 5.5 3.7 4.1 4.1 4.6 5.5 5.9 5.6 5.9 6.4 4.2 3.6 3.8 5.0 4.9 4.9 5.1 5.8 6.5 6.2 7.0 6.4 5.0 6.4 6.9 6.7 6.5 6.4 6.4 6.5 6.1 2.9 3.6 4.4 5.7
Wind_Speed
8 12 11 14 15 16 15 14 15 14 15 17 18 16 16 18 18 18 15 12 7 2 2 4 4 5 7 8 8 9 10 11 11 12 14 15 16 18 21 21 21 22 23
13 11 10 11 14 16 17 17 14 12 11 12 12 16 15 16 17 17 17 14 6 1 3 4 3 4 6 7 7 7 8 9 9 10 11 13 14 16 17 18 20 21 20
14 14 11 9 12 14 16 16 12 10 9 11 9 13 13 13 16 18 19 18 12 9 11 8 3 4 3 3 4 4 6 6 6 7 9 9 11 12 14 17 18 19 20
18 14 10 9 13 13 12 9 4 5 5 5 4 5 7 10 10 15 18 19 16 13 12 12 6 3 1 3 2 1 2 2 4 5 6 8 9 11 14 15 16 17 17
15 15 12 12 12 10 9 6 5 3 3 2 1 2 3 4 7 9 11 13 12 13 11 9 7 5 2 4 4 3 4 1 1 2 2 2 5 8 11 13 14 15 16
15 16 13 12 11 8 4 4 3 3 2 1 1 3 2 2 5 5 6 7 9 8 7 6 5 4 5 2 1 2 3 5 4 3 2 3 5 7 8 11 13 15 16
14 15 11 10 9 5 4 3 2 2 1 1 1 3 2 1 2 1 5 3 3 3 3 5 4 3 6 9 9 8 10 10 11 11 9 8 7 8 10 11 13 15 16
14 14 12 7 8 4 4 3 2 1 0 1 2 1 3 4 2 2 1 2 1 3 3 4 3 3 6 8 9 11 12 15 16 15 14 11 10 11 12 14 14 15 17
15 13 11 9 7 5 3 2 2 3 1 1 3 3 1 3 2 2 3 2 2 2 4 4 3 4 5 6 10 12 13 13 16 16 16 12 13 14 16 15 14 16 16
10 6 7 8 6 3 3 2 3 2 2 2 1 3 1 3 3 4 2 3 2 3 4 6 7 6 5 7 10 11 13 12 12 13 12 14 17 17 18 18 16 16 19
8 7 8 6 8 6 4 4 3 2 1 1 2 2 2 1 1 3 3 3 2 4 6 6 9 7 5 8 10 10 11 10 12 11 14 17 16 19 21 21 19 21 21
6 10 12 9 7 7 5 3 2 2 1 2 2 3 3 3 3 3 4 4 4 3 3 6 6 5 6 9 11 9 11 10 7 8 11 15 18 21 22 23 23 25 27
3 4 7 6 2 4 4 4 3 2 1 2 3 2 2 3 2 3 2 3 4 1 3 3 5 4 9 14 13 14 14 15 12 10 12 15 16 18 21 23 26 28 30
3 8 7 7 6 4 4 3 2 1 1 1 1 1 2 4 3 3 3 3 4 2 2 4 2 7 12 13 14 16 17 16 15 14 12 14 16 19 21 24 27 30 32
3 4 8 8 8 7 7 8 4 4 3 3 2 2 2 3 3 3 3 2 2 3 2 2 1 2 10 15 17 17 20 17 19 17 18 19 20 22 24 26 27 29 30
5 7 6 8 7 7 8 6 4 3 3 2 2 2 3 2 3 1 1 2 1 2 2 3 4 2 3 6 11 17 19 19 18 20 20 20 22 23 24 24 25 26 26
8 6 6 6 6 5 5 4 4 4 3 3 3 4 5 4 3 3 3 2 3 3 3 3 3 3 2 4 11 16 16 17 16 18 19 21 21 19 19 20 21 21 22
7 6 6 6 4 3 5 5 5 4 4 5 6 4 5 3 4 3 2 4 3 3 3 4 2 2 4 4 8 7 12 14 14 17 17 18 21 22 22 24 23 23 22
4 5 4 4 5 5 5 6 5 5 5 6 5 5 6 5 5 3 4 4 3 2 3 3 3 2 3 3 4 5 6 10 11 15 21 23 23 24 24 24 25 25 22
2 3 4 5 5 6 5 5 5 5 5 5 5 5 5 5 6 5 5 5 4 3 3 3 3 4 3 3 3 5 6 3 8 15 20 19 19 20 23 24 24 25 26
1 1 2 4 4 3 3 5 5 5 5 6 5 5 5 4 6 8 4 5 4 3 3 3 4 3 3 3 5 5 6 7 8 7 6 7 10 14 17 19 19 21 22
1 2 3 3 3 3 7 7 6 5 6 6 6 5 5 7 9 9 10 8 7 4 3 2 3 4 4 4 2 4 6 6 5 4 2 10 9 8 12 15 21 23 24
0 3 4 4 5 6 8 9 8 5 5 5 5 5 4 3 4 4 7 8 7 8 6 4 4 4 3 3 5 6 7 7 8 7 4 10 6 9 13 17 23 26 27
3 4 5 6 6 6 9 9 9 5 5 6 6 5 5 5 5 5 5 5 5 5 6 4 5 5 5 7 5 6 8 8 6 6 4 7 6 7 9 16 25 27 23
2 2 4 6 6 7 8 9 7 5 5 6 6 5 6 6 9 11 6 6 6 6 7 9 10 10 12 13 13 2 4 6 7 7 4 3 3 9 8 9 15 18 17
3 3 5 5 7 6 9 11 9 3 6 5 5 6 11 8 10 13 6 5 5 5 4 4 4 8 10 11 13 6 3 6 6 5 1 3 8 4 4 3 3 10 13
Wind_Direction
114 111 104 96 92 95 89 78 73 66 60 60 60 53 45 40 38 32 21 14 360 18 102 137 137 104 87 77 66 66 63 55 41 34 27 27 19 20 14 11 12 11 7
125 117 103 98 96 96 91 85 80 76 70 73 56 46 44 42 37 35 28 12 351 343 104 107 83 82 81 72 63 53 74 74 57 42 27 22 20 22 17 12 10 8 3
130 125 112 99 110 106 97 89 85 83 67 57 51 36 39 38 41 43 35 30 41 37 59 41 43 105 76 67 64 65 65 49 48 44 34 30 28 21 17 11 7 6 5
131 120 114 116 121 104 103 98 96 58 56 54 49 12 33 43 58 56 48 46 52 45 33 21 40 63 74 350 85 62 96 45 41 47 49 33 22 14 6 359 356 357 358
126 121 119 122 119 107 84 83 56 87 59 38 109 341 47 55 75 66 53 56 64 64 55 45 46 34 38 6 346 304 300 91 78 72 64 19 1 355 354 349 347 347 347
129 120 122 126 115 99 95 79 92 59 134 185 221 330 356 54 105 79 76 72 72 51 57 64 58 27 13 44 51 309 266 221 229 250 279 304 325 332 337 334 333 334 336
138 132 126 129 131 125 141 131 119 132 182 2 65 339 334 334 93 67 112 95 67 32 43 20 359 13 2 352 332 290 284 270 266 277 262 262 287 306 315 318 320 323 326
152 149 148 147 139 119 123 131 132 132 188 154 127 105 358 329 286 247 97 212 0 313 341 351 343 6 344 340 343 330 313 289 283 280 281 278 285 289 303 304 309 313 317
166 162 159 151 145 120 150 159 147 146 161 292 222 149 6 237 314 321 251 211 245 269 293 298 280 316 332 341 342 328 317 302 277 279 280 269 278 289 296 296 293 299 303
169 140 119 127 120 111 120 145 130 141 129 238 302 246 293 154 214 313 317 265 326 287 267 290 288 296 321 333 340 334 338 319 293 276 268 277 283 282 284 286 288 291 293
111 123 105 89 97 99 88 75 75 85 186 212 206 255 261 296 233 223 282 285 265 267 276 264 268 276 303 330 332 328 333 322 302 282 283 278 280 282 286 286 284 285 289
87 98 113 122 122 115 110 107 100 73 30 243 232 215 205 213 221 212 241 254 237 273 292 282 253 265 334 352 335 344 330 343 329 300 293 289 289 289 289 290 290 292 291
115 132 123 108 123 145 107 76 63 43 340 298 303 290 237 234 208 222 225 252 283 199 266 269 254 357 20 16 6 355 345 330 314 296 285 284 287 288 288 288 288 288 288
140 161 146 153 157 126 112 114 107 73 64 65 7 280 278 268 243 224 224 217 266 270 277 246 352 42 15 2 350 343 342 337 326 313 301 296 291 287 285 284 284 283 282
163 195 162 176 173 169 168 156 147 151 170 169 183 238 242 265 250 253 232 210 234 285 278 302 259 345 1 339 337 338 334 322 311 308 303 297 293 290 290 287 283 281 280
208 171 176 189 181 179 174 163 171 189 200 230 238 271 276 269 291 305 115 109 117 199 247 206 242 266 314 305 322 319 312 307 304 302 299 298 295 292 289 286 282 281 280
184 186 191 191 194 187 184 184 201 207 228 246 252 256 273 254 246 215 202 191 208 185 233 271 239 248 265 269 299 307 305 296 295 299 303 298 294 297 298 296 294 291 287
186 186 203 220 207 205 206 208 221 219 234 249 256 261 261 262 251 240 212 202 192 208 214 263 246 256 243 262 277 291 301 304 301 303 300 309 302 296 294 293 291 289 285
192 222 239 254 256 252 233 223 219 238 245 249 251 250 256 251 252 227 217 212 218 222 220 245 280 248 260 260 289 295 294 298 302 305 304 297 293 294 292 288 285 281 277
217 265 270 276 271 257 229 219 230 249 252 255 253 239 252 256 247 237 216 220 212 221 238 259 273 278 260 289 286 304 307 300 304 302 296 295 296 292 295 292 288 283 279
213 283 285 295 298 245 226 232 247 251 255 254 239 237 238 253 271 237 201 210 199 217 244 260 274 275 291 303 299 304 298 302 296 278 281 286 287 295 288 288 284 283 283
93 100 13 336 290 257 252 255 233 242 247 243 247 254 253 269 266 246 204 204 192 200 234 235 256 278 278 273 271 287 294 301 308 264 292 296 292 285 282 280 280 283 283
280 286 288 284 272 266 261 265 248 233 241 250 253 251 270 251 226 210 204 199 207 236 233 216 239 247 248 248 286 287 285 280 287 292 286 297 291 285 285 281 281 283 287
279 287 296 294 277 263 244 251 235 234 247 248 234 242 235 242 236 216 207 223 232 242 251 250 230 247 251 264 246 278 290 291 282 281 268 289 294 286 286 277 278 285 285
319 291 294 297 275 265 265 263 249 228 239 247 239 228 230 241 250 237 201 222 243 254 266 261 263 281 296 303 308 326 307 307 304 303 279 257 282 299 288 283 280 283 282
251 287 293 293 283 272 271 263 256 214 248 246 245 234 246 236 240 225 198 210 239 258 248 256 272 282 291 293 301 284 265 293 298 307 282 325 302 303 305 259 266 272 279